Regional Weather Roundup
Issued by NWS

Home | Current Version | Previous Version | Text Only | Print | Product List | Glossary Off
Versions: 1 2 3 4 5 6 7 8 9 10 11 12 13 14 15 16 17 18 19 20 21 22 23 24 25 26 27 28 29 30 31 32 33 34 35 36 37 38 39 40 41 42 43 44 45 46 47 48 49 50

000
ASUS43 KFSD 300710
RWRSD

WEATHER ROUNDUP FOR SOUTH DAKOTA
NATIONAL WEATHER SERVICE SIOUX FALLS SD
200 AM CDT THU MAR 30 2017

NOTE: "FAIR" INDICATES FEW OR NO CLOUDS BELOW 12,000 FEET WITH NO
SIGNIFICANT WEATHER AND/OR OBSTRUCTIONS TO VISIBILITY.


SDZ001>005-009-010-012>017-300800-
NORTHWEST AND NORTH CENTRAL SOUTH DAKOTA

CITY           SKY/WX    TMP DP  RH WIND       PRES   REMARKS
BUFFALO          N/A     43  38  82 S15       29.77F
FAITH            N/A     37  35  92 MISG      29.90F
MOBRIDGE       CLEAR     37  31  78 S6        29.94S
$$

SDZ012>016-024>037-041>051-057-063-072>074-300800-
SOUTHWEST AND SOUTH CENTRAL SOUTH DAKOTA

CITY           SKY/WX    TMP DP  RH WIND       PRES   REMARKS
RAPID CTY ARPT CLEAR     35  34  96 SE7       29.89F WCI  29
PIERRE         CLEAR     35  33  92 S10       29.95F WCI  27
CUSTER         MOCLDY    34  32  92 CALM      29.90F
ELLSWORTH AFB  CLEAR     40  39  99 CALM      29.88F
PHILIP         CLEAR     35  34  96 CALM      29.94F
PINE RIDGE     CLEAR     36  35  96 NW3       29.91S
SPEARFISH      MOCLDY    43  36  75 S5G12     29.85F
WINNER         CLOUDY    40  37  89 E8        29.95F
$$

SDZ004>011-016>023-039-040-300800-
NORTHEAST SOUTH DAKOTA

CITY           SKY/WX    TMP DP  RH WIND       PRES   REMARKS
ABERDEEN       CLOUDY    37  33  85 SE5       30.01F
WATERTOWN      CLOUDY    38  36  92 E7        29.99F
BROOKINGS      CLOUDY    38  35  89 E13       29.96F
SISSETON         N/A     41  38  89 S8        30.03S
$$

SDZ017-020-022-023-036>040-048>070-300800-
SOUTHEAST SOUTH DAKOTA

CITY           SKY/WX    TMP DP  RH WIND       PRES   REMARKS
SIOUX FALLS    CLOUDY    39  38  96 NE13      29.93F
HURON          CLOUDY    41  38  89 NE7       29.99S
CHAMBERLAIN    CLOUDY    41  39  93 NE6       29.98S
MITCHELL       CLOUDY    41  36  82 NE6       29.97F
YANKTON        CLOUDY    37  36  93 N10       29.91S
$$

ABBREVIATIONS USED IN REMARKS
   TC - TEMPERATURE IN CELSIUS
  WCI - WIND CHILL INDEX
   HX - HEAT INDEX
  VSB - VISIBILITY





USA.gov is the U.S. government's official web portal to all federal, state and local government web resources and services.